Tracking 28915 objects as of 29-May-2024
HD Live streaming from Space Station
objects crossing your sky now

OBJECT A

Track OBJECT A now!
10-day predictions


NORAD ID: 56846
Int'l Code: 2023-081A
Perigee: 514.3 km
Apogee: 516.6 km
Inclination: 97.4 °
Period: 94.8 minutes
Semi major axis: 6886 km
RCS: Unknown
Launch date: June 7, 2023
Source: (TBD)
Launch site: Jiuquan Satellite Launch Center, China (JSC)
Your satellite tracking list
Your tracking list is empty




NASA's NSSDC Master Catalog

Two Line Element Set (TLE):
1 56846U 23081A   24150.19452377  .00002908  00000-0  14148-3 0  9993
2 56846  97.4118 223.1424 0001710  91.7689 268.3741 15.19175667 54220
Source of the keplerian elements: AFSPC